Time,TemperatureF,DewpointF,PressureIn,WindDirection,WindDirectionDegrees,WindSpeedMPH,WindSpeedGustMPH,Humidity,HourlyPrecipIn,Conditions,Clouds,dailyrainin,SoftwareType,DateUTC
2018-01-23 00:00:00,53.2,17.4,29.90,SSE,157,0.0,0.0,24,0.00,,,0.00,meteohub,2018-01-23 05:00:00,
2018-01-23 00:05:00,53.2,18.3,29.89,SSE,157,0.0,0.0,25,0.00,,,0.00,meteohub,2018-01-23 05:05:00,
2018-01-23 00:10:00,53.4,19.4,29.89,SSE,157,0.0,0.0,26,0.00,,,0.00,meteohub,2018-01-23 05:10:00,
2018-01-23 00:15:00,53.6,19.6,29.89,SSE,157,0.0,0.0,26,0.00,,,0.00,meteohub,2018-01-23 05:15:00,
2018-01-23 00:25:00,54.0,20.7,29.88,SSE,157,0.0,0.0,27,0.00,,,0.00,meteohub,2018-01-23 05:25:00,
2018-01-23 00:36:00,54.1,21.7,29.87,SSE,159,0.0,0.0,28,0.00,,,0.00,meteohub,2018-01-23 05:36:00,
2018-01-23 00:41:00,54.1,22.6,29.86,SSE,159,0.0,0.0,29,0.00,,,0.00,meteohub,2018-01-23 05:41:00,
2018-01-23 00:46:00,54.1,22.6,29.86,SSE,159,0.0,0.0,29,0.00,,,0.00,meteohub,2018-01-23 05:46:00,
2018-01-23 00:51:00,54.1,21.7,29.85,SSE,159,0.0,0.0,28,0.00,,,0.00,meteohub,2018-01-23 05:51:00,
2018-01-23 00:56:00,54.0,21.6,29.85,SSE,159,0.0,0.0,28,0.00,,,0.00,meteohub,2018-01-23 05:56:00,
2018-01-23 01:01:00,54.0,20.7,29.85,SSE,159,0.0,0.0,27,0.00,,,0.00,meteohub,2018-01-23 06:01:00,
2018-01-23 01:06:00,54.0,19.8,29.84,SSE,159,0.0,0.0,26,0.00,,,0.00,meteohub,2018-01-23 06:06:00,
2018-01-23 01:11:00,53.8,19.8,29.84,SSE,159,0.0,0.0,26,0.00,,,0.00,meteohub,2018-01-23 06:11:00,
2018-01-23 01:21:00,53.8,16.9,29.83,SSE,159,0.0,0.0,23,0.00,,,0.00,meteohub,2018-01-23 06:21:00,
2018-01-23 01:26:00,53.8,15.8,29.83,SSE,159,0.0,0.0,22,0.00,,,0.00,meteohub,2018-01-23 06:26:00,
2018-01-23 01:31:00,54.0,16.0,29.83,SSE,159,0.0,0.0,22,0.00,,,0.00,meteohub,2018-01-23 06:31:00,
2018-01-23 01:42:00,54.1,15.1,29.83,SSE,159,0.0,0.0,21,0.00,,,0.00,meteohub,2018-01-23 06:42:00,
2018-01-23 01:47:00,54.1,16.2,29.82,SSE,159,0.0,0.0,22,0.00,,,0.00,meteohub,2018-01-23 06:47:00,
2018-01-23 01:52:00,54.1,16.2,29.81,SSE,159,0.0,0.0,22,0.00,,,0.00,meteohub,2018-01-23 06:52:00,
2018-01-23 01:57:00,54.0,14.9,29.81,SSE,159,0.0,0.0,21,0.00,,,0.00,meteohub,2018-01-23 06:57:00,
2018-01-23 02:02:00,54.0,13.8,29.81,SSE,159,0.0,0.0,20,0.00,,,0.00,meteohub,2018-01-23 07:02:00,
2018-01-23 02:07:00,54.0,11.5,29.81,SSE,159,0.0,0.0,18,0.00,,,0.00,meteohub,2018-01-23 07:07:00,
2018-01-23 02:12:00,53.8,10.0,29.80,SSE,159,0.0,0.0,17,0.00,,,0.00,meteohub,2018-01-23 07:12:00,
2018-01-23 02:17:00,53.8,10.0,29.80,SSE,159,0.0,0.0,17,0.00,,,0.00,meteohub,2018-01-23 07:17:00,
2018-01-23 02:22:00,53.8,10.0,29.79,SSE,159,0.0,0.0,17,0.00,,,0.00,meteohub,2018-01-23 07:22:00,
2018-01-23 02:27:00,53.6,7.0,29.79,SSE,159,0.0,0.0,15,0.00,,,0.00,meteohub,2018-01-23 07:27:00,
2018-01-23 02:32:00,53.4,5.4,29.79,SSE,159,0.0,0.0,14,0.00,,,0.00,meteohub,2018-01-23 07:32:00,
2018-01-23 02:37:00,53.4,0.1,29.78,SSE,159,0.0,0.0,11,0.00,,,0.00,meteohub,2018-01-23 07:37:00,
2018-01-23 02:42:00,53.4,-1.8,29.78,SSE,159,0.0,0.0,10,0.00,,,0.00,meteohub,2018-01-23 07:42:00,
2018-01-23 02:47:00,53.4,-4.0,29.78,SSE,159,0.0,0.0,9,0.00,,,0.00,meteohub,2018-01-23 07:47:00,
2018-01-23 02:52:00,53.4,-6.5,29.78,SSE,159,0.0,0.0,8,0.00,,,0.00,meteohub,2018-01-23 07:52:00,
2018-01-23 02:57:00,53.6,-9.0,29.78,SSE,159,0.0,0.0,7,0.00,,,0.00,meteohub,2018-01-23 07:57:00,
2018-01-23 03:07:00,53.6,-12.3,29.78,SSE,159,0.0,0.0,6,0.00,,,0.00,meteohub,2018-01-23 08:07:00,
2018-01-23 03:12:00,53.6,-15.9,29.77,SSE,159,0.0,0.0,5,0.00,,,0.00,meteohub,2018-01-23 08:12:00,
2018-01-23 03:17:00,53.6,-20.2,29.77,SSE,159,0.0,0.0,4,0.00,,,0.00,meteohub,2018-01-23 08:17:00,
2018-01-23 03:22:00,53.6,-20.2,29.77,SSE,159,0.0,0.0,4,0.00,,,0.00,meteohub,2018-01-23 08:22:00,
2018-01-23 03:27:00,53.4,53.4,29.77,SSE,159,0.0,0.0,0,0.00,,,0.00,meteohub,2018-01-23 08:27:00,
2018-01-23 03:32:00,53.6,53.6,29.76,SSE,159,0.0,0.0,0,0.00,,,0.00,meteohub,2018-01-23 08:32:00,
2018-01-23 03:37:00,53.6,53.6,29.76,SSE,159,0.0,0.0,0,0.00,,,0.00,meteohub,2018-01-23 08:37:00,
2018-01-23 03:47:00,53.4,53.4,29.76,SSE,159,0.0,0.0,0,0.00,,,0.00,meteohub,2018-01-23 08:47:00,
2018-01-23 03:52:00,53.4,53.4,29.75,SSE,159,0.0,0.0,0,0.00,,,0.00,meteohub,2018-01-23 08:52:00,
2018-01-23 04:02:00,53.2,53.2,29.75,SSE,159,0.0,0.0,0,0.00,,,0.00,meteohub,2018-01-23 09:02:00,
2018-01-23 04:07:00,53.2,53.2,29.74,SSE,159,0.0,0.0,0,0.00,,,0.00,meteohub,2018-01-23 09:07:00,
2018-01-23 04:12:00,53.2,53.2,29.73,SSE,158,0.0,0.0,0,0.00,,,0.00,meteohub,2018-01-23 09:12:00,
2018-01-23 04:17:00,53.2,53.2,29.73,East,94,0.0,0.0,0,0.00,,,0.00,meteohub,2018-01-23 09:17:00,
2018-01-23 04:22:00,53.4,53.4,29.73,East,94,0.0,0.0,0,0.00,,,0.00,meteohub,2018-01-23 09:22:00,
2018-01-23 04:27:00,53.4,53.4,29.73,East,94,0.0,0.0,0,0.00,,,0.00,meteohub,2018-01-23 09:27:00,
2018-01-23 04:32:00,53.6,53.6,29.73,ESE,110,0.0,0.0,0,0.00,,,0.00,meteohub,2018-01-23 09:32:00,
2018-01-23 04:37:00,53.8,53.8,29.72,ESE,110,0.0,0.0,0,0.00,,,0.00,meteohub,2018-01-23 09:37:00,
2018-01-23 04:42:00,53.8,53.8,29.72,ESE,110,0.0,0.0,0,0.00,,,0.00,meteohub,2018-01-23 09:42:00,
2018-01-23 04:47:00,54.0,54.0,29.72,ESE,111,0.0,0.0,0,0.00,,,0.00,meteohub,2018-01-23 09:47:00,
2018-01-23 04:52:00,54.0,54.0,29.71,ESE,111,0.0,0.0,0,0.00,,,0.00,meteohub,2018-01-23 09:52:00,
2018-01-23 04:57:00,54.0,54.0,29.71,ESE,111,0.0,0.0,0,0.00,,,0.00,meteohub,2018-01-23 09:57:00,
2018-01-23 05:02:00,54.0,54.0,29.70,ESE,111,0.0,0.0,0,0.00,,,0.00,meteohub,2018-01-23 10:02:00,
2018-01-23 05:07:00,54.0,54.0,29.70,ESE,111,0.0,0.0,0,0.00,,,0.00,meteohub,2018-01-23 10:07:00,
2018-01-23 05:12:00,54.1,54.1,29.69,ESE,111,0.0,0.0,0,0.00,,,0.00,meteohub,2018-01-23 10:12:00,
2018-01-23 05:17:00,54.3,54.3,29.69,ESE,111,0.0,0.0,0,0.00,,,0.00,meteohub,2018-01-23 10:17:00,
2018-01-23 05:22:00,54.5,54.5,29.68,ESE,109,0.0,0.0,0,0.00,,,0.00,meteohub,2018-01-23 10:22:00,
2018-01-23 05:28:00,54.7,54.7,29.68,ESE,109,0.0,0.0,0,0.00,,,0.00,meteohub,2018-01-23 10:28:00,
2018-01-23 05:33:00,54.9,54.9,29.68,ESE,109,0.0,0.0,0,0.00,,,0.00,meteohub,2018-01-23 10:33:00,
2018-01-23 05:38:00,54.9,54.9,29.67,ESE,109,0.0,0.0,0,0.00,,,0.00,meteohub,2018-01-23 10:38:00,
2018-01-23 05:43:00,55.4,55.4,29.66,ESE,109,0.0,0.0,0,0.00,,,0.00,meteohub,2018-01-23 10:43:00,
2018-01-23 05:48:00,55.8,55.8,29.66,ESE,108,0.0,0.0,0,0.00,,,0.00,meteohub,2018-01-23 10:48:00,
2018-01-23 05:58:00,56.1,56.1,29.65,ESE,108,0.0,0.0,0,0.00,,,0.00,meteohub,2018-01-23 10:58:00,
2018-01-23 06:03:00,56.3,56.3,29.65,ESE,108,0.0,0.0,0,0.00,,,0.00,meteohub,2018-01-23 11:03:00,
2018-01-23 06:08:00,56.5,56.5,29.64,ESE,108,0.0,0.0,0,0.00,,,0.00,meteohub,2018-01-23 11:08:00,
2018-01-23 06:13:00,56.7,56.7,29.64,ESE,109,0.0,0.0,0,0.00,,,0.00,meteohub,2018-01-23 11:13:00,
2018-01-23 06:18:00,56.8,56.8,29.64,ESE,109,0.0,0.0,0,0.00,,,0.00,meteohub,2018-01-23 11:18:00,
2018-01-23 06:24:00,57.0,57.0,29.64,ESE,108,0.0,0.0,0,0.00,,,0.00,meteohub,2018-01-23 11:24:00,
2018-01-23 06:29:00,57.0,57.0,29.63,ESE,102,0.0,0.0,0,0.00,,,0.00,meteohub,2018-01-23 11:29:00,
2018-01-23 06:34:00,57.0,57.0,29.62,North,5,0.0,0.0,0,0.00,,,0.00,meteohub,2018-01-23 11:34:00,
2018-01-23 06:39:00,57.0,57.0,29.62,NE,40,0.0,0.0,0,0.00,,,0.00,meteohub,2018-01-23 11:39:00,
2018-01-23 06:44:00,57.0,57.0,29.62,ENE,59,0.0,0.0,0,0.00,,,0.00,meteohub,2018-01-23 11:44:00,
2018-01-23 06:49:00,57.4,57.4,29.62,NE,51,0.0,0.0,0,0.00,,,0.00,meteohub,2018-01-23 11:49:00,
2018-01-23 06:54:00,57.6,57.6,29.62,SSE,155,0.0,0.0,0,0.00,,,0.00,meteohub,2018-01-23 11:54:00,
2018-01-23 06:59:00,57.7,57.7,29.62,WSW,257,0.0,0.0,0,0.00,,,0.00,meteohub,2018-01-23 11:59:00,
2018-01-23 07:04:00,57.7,57.7,29.62,WSW,249,0.0,0.0,0,0.00,,,0.00,meteohub,2018-01-23 12:04:00,
2018-01-23 07:09:00,57.7,57.7,29.62,South,173,0.0,0.0,0,0.00,,,0.00,meteohub,2018-01-23 12:09:00,
2018-01-23 07:15:00,57.9,57.9,29.61,WSW,249,0.0,0.0,0,0.00,,,0.00,meteohub,2018-01-23 12:15:00,
2018-01-23 07:20:00,58.3,58.3,29.61,SSE,152,0.0,0.0,0,0.00,,,0.00,meteohub,2018-01-23 12:20:00,
2018-01-23 07:25:00,58.3,58.3,29.62,SSE,153,0.0,0.0,0,0.00,,,0.00,meteohub,2018-01-23 12:25:00,
2018-01-23 07:30:00,58.5,58.5,29.62,SSE,164,0.0,0.0,0,0.00,,,0.00,meteohub,2018-01-23 12:30:00,
2018-01-23 07:35:00,58.6,58.6,29.61,WSW,243,0.0,0.0,0,0.00,,,0.00,meteohub,2018-01-23 12:35:00,
2018-01-23 07:45:00,58.6,58.6,29.61,SE,129,0.0,0.0,0,0.00,,,0.00,meteohub,2018-01-23 12:45:00,
2018-01-23 07:50:00,58.6,58.6,29.61,SSE,153,0.0,0.0,0,0.00,,,0.00,meteohub,2018-01-23 12:50:00,
2018-01-23 07:55:00,58.6,58.6,29.61,ESE,123,0.0,0.0,0,0.00,,,0.00,meteohub,2018-01-23 12:55:00,
2018-01-23 08:06:00,58.8,58.8,29.61,SSE,152,0.0,0.0,0,0.00,,,0.00,meteohub,2018-01-23 13:06:00,
2018-01-23 08:11:00,58.8,58.8,29.61,South,179,0.0,0.0,0,0.00,,,0.00,meteohub,2018-01-23 13:11:00,
2018-01-23 08:16:00,59.0,59.0,29.61,WSW,248,0.0,0.0,0,0.00,,,0.00,meteohub,2018-01-23 13:16:00,
2018-01-23 08:21:00,59.2,59.2,29.61,SW,214,0.0,0.0,0,0.00,,,0.00,meteohub,2018-01-23 13:21:00,
2018-01-23 08:26:00,59.4,59.4,29.61,WSW,251,0.0,0.0,0,0.00,,,0.00,meteohub,2018-01-23 13:26:00,
2018-01-23 08:31:00,59.4,59.4,29.61,WSW,250,0.0,0.0,0,0.00,,,0.00,meteohub,2018-01-23 13:31:00,
2018-01-23 08:36:00,59.5,59.5,29.61,South,188,0.0,0.0,0,0.00,,,0.00,meteohub,2018-01-23 13:36:00,
2018-01-23 08:41:00,59.5,59.5,29.62,WSW,248,0.0,0.0,0,0.00,,,0.00,meteohub,2018-01-23 13:41:00,
2018-01-23 08:46:00,59.7,59.7,29.62,SW,236,0.0,0.0,0,0.00,,,0.00,meteohub,2018-01-23 13:46:00,
2018-01-23 08:51:00,59.7,59.7,29.62,WSW,252,0.0,0.0,0,0.00,,,0.00,meteohub,2018-01-23 13:51:00,
2018-01-23 08:56:00,59.7,59.7,29.62,WSW,252,0.0,0.0,0,0.00,,,0.00,meteohub,2018-01-23 13:56:00,
2018-01-23 09:02:00,59.7,59.7,29.62,WSW,251,0.0,0.0,0,0.00,,,0.00,meteohub,2018-01-23 14:02:00,
2018-01-23 09:12:00,59.9,59.9,29.62,WSW,250,0.0,0.0,0,0.00,,,0.00,meteohub,2018-01-23 14:12:00,
2018-01-23 09:17:00,59.9,59.9,29.62,WSW,251,0.0,0.0,0,0.00,,,0.00,meteohub,2018-01-23 14:17:00,
2018-01-23 09:22:00,60.1,60.1,29.62,WSW,251,0.0,0.0,0,0.00,,,0.00,meteohub,2018-01-23 14:22:00,
2018-01-23 09:27:00,60.3,60.3,29.62,WSW,251,0.0,0.0,0,0.00,,,0.00,meteohub,2018-01-23 14:27:00,
2018-01-23 09:32:00,60.3,60.3,29.62,WSW,250,0.0,0.0,0,0.00,,,0.00,meteohub,2018-01-23 14:32:00,
2018-01-23 09:37:00,60.4,60.4,29.62,WSW,245,0.0,0.0,0,0.00,,,0.00,meteohub,2018-01-23 14:37:00,
2018-01-23 09:42:00,60.6,60.6,29.62,WSW,245,0.0,0.0,0,0.00,,,0.00,meteohub,2018-01-23 14:42:00,
2018-01-23 09:47:00,60.6,60.6,29.62,WSW,245,0.0,0.0,0,0.00,,,0.00,meteohub,2018-01-23 14:47:00,
2018-01-23 09:52:00,60.8,60.8,29.62,WSW,245,0.0,0.0,0,0.00,,,0.00,meteohub,2018-01-23 14:52:00,
2018-01-23 09:57:00,61.0,61.0,29.61,WSW,245,0.0,0.0,0,0.00,,,0.00,meteohub,2018-01-23 14:57:00,
2018-01-23 10:02:00,61.2,61.2,29.62,WSW,255,0.0,0.0,0,0.00,,,0.00,meteohub,2018-01-23 15:02:00,
2018-01-23 10:07:00,61.2,61.2,29.62,WSW,255,0.0,0.0,0,0.00,,,0.00,meteohub,2018-01-23 15:07:00,
2018-01-23 10:17:00,59.9,59.9,29.62,WSW,255,0.0,0.0,0,0.00,,,0.00,meteohub,2018-01-23 15:17:00,
2018-01-23 10:22:00,59.0,59.0,29.62,West,259,0.0,0.0,0,0.00,,,0.00,meteohub,2018-01-23 15:22:00,
2018-01-23 10:27:00,58.5,58.5,29.61,West,259,0.0,0.0,0,0.00,,,0.00,meteohub,2018-01-23 15:27:00,
2018-01-23 10:32:00,57.9,57.9,29.61,West,259,0.0,0.0,0,0.00,,,0.00,meteohub,2018-01-23 15:32:00,
2018-01-23 10:37:00,57.7,57.7,29.61,West,259,0.0,0.0,0,0.00,,,0.00,meteohub,2018-01-23 15:37:00,
2018-01-23 10:42:00,57.6,57.6,29.61,West,259,0.0,0.0,0,0.00,,,0.00,meteohub,2018-01-23 15:42:00,
2018-01-23 10:47:00,58.1,58.1,29.61,West,259,0.0,0.0,0,0.00,,,0.00,meteohub,2018-01-23 15:47:00,
2018-01-23 10:52:00,58.8,58.8,29.61,West,261,0.0,0.0,0,0.00,,,0.00,meteohub,2018-01-23 15:52:00,
2018-01-23 10:57:00,59.5,59.5,29.60,West,265,0.0,0.0,0,0.00,,,0.00,meteohub,2018-01-23 15:57:00,
2018-01-23 11:07:00,60.3,60.3,29.60,West,261,0.0,0.0,0,0.00,,,0.00,meteohub,2018-01-23 16:07:00,
2018-01-23 11:12:00,60.6,60.6,29.60,West,261,0.0,0.0,0,0.00,,,0.00,meteohub,2018-01-23 16:12:00,
2018-01-23 11:23:00,61.9,-9.9,29.59,West,261,0.0,0.0,5,0.00,,,0.00,meteohub,2018-01-23 16:23:00,
2018-01-23 11:28:00,62.1,10.6,29.59,West,262,0.0,0.0,13,0.00,,,0.00,meteohub,2018-01-23 16:28:00,
2018-01-23 11:33:00,62.1,8.8,29.59,West,261,0.0,0.0,12,0.00,,,0.00,meteohub,2018-01-23 16:33:00,
2018-01-23 11:38:00,62.2,10.8,29.59,West,262,0.0,0.0,13,0.00,,,0.00,meteohub,2018-01-23 16:38:00,
2018-01-23 11:43:00,62.2,18.1,29.58,West,262,0.0,0.0,18,0.00,,,0.00,meteohub,2018-01-23 16:43:00,
2018-01-23 11:48:00,62.1,19.2,29.58,West,263,0.0,0.0,19,0.00,,,0.00,meteohub,2018-01-23 16:48:00,
2018-01-23 11:53:00,62.1,19.2,29.58,West,261,0.0,0.0,19,0.00,,,0.00,meteohub,2018-01-23 16:53:00,
2018-01-23 11:58:00,61.9,27.5,29.58,West,261,0.0,0.0,27,0.00,,,0.00,meteohub,2018-01-23 16:58:00,
2018-01-23 12:03:00,61.5,26.2,29.57,West,262,0.0,0.0,26,0.00,,,0.00,meteohub,2018-01-23 17:03:00,
2018-01-23 12:08:00,61.9,24.6,29.57,West,261,0.0,0.0,24,0.00,,,0.00,meteohub,2018-01-23 17:08:00,
2018-01-23 12:13:00,62.2,23.0,29.57,West,261,0.0,0.0,22,0.00,,,0.00,meteohub,2018-01-23 17:13:00,
2018-01-23 12:19:00,62.6,32.4,29.56,West,262,0.0,0.0,32,0.00,,,0.00,meteohub,2018-01-23 17:19:00,
2018-01-23 12:29:00,62.6,34.5,29.55,West,263,0.0,0.0,35,0.00,,,0.00,meteohub,2018-01-23 17:29:00,
2018-01-23 12:44:00,63.7,38.8,29.55,West,271,0.0,0.0,40,0.00,,,0.00,meteohub,2018-01-23 17:44:00,
2018-01-23 12:49:00,63.7,40.1,29.55,West,264,0.0,0.0,42,0.00,,,0.00,meteohub,2018-01-23 17:49:00,
2018-01-23 12:59:00,63.0,43.0,29.55,West,263,0.0,0.0,48,0.00,,,0.00,meteohub,2018-01-23 17:59:00,
2018-01-23 13:09:00,62.6,42.6,29.54,West,263,0.0,0.0,48,0.00,,,0.00,meteohub,2018-01-23 18:09:00,
2018-01-23 13:15:00,62.4,41.9,29.55,West,262,0.0,0.0,47,0.00,,,0.00,meteohub,2018-01-23 18:15:00,
2018-01-23 13:20:00,62.2,41.7,29.54,West,264,0.0,0.0,47,0.00,,,0.00,meteohub,2018-01-23 18:20:00,
2018-01-23 13:25:00,62.2,41.2,29.54,West,262,0.0,0.0,46,0.00,,,0.00,meteohub,2018-01-23 18:25:00,
2018-01-23 13:30:00,62.2,41.7,29.55,West,263,0.0,0.0,47,0.00,,,0.00,meteohub,2018-01-23 18:30:00,
2018-01-23 13:40:00,61.7,42.8,29.55,West,261,0.0,0.0,50,0.00,,,0.00,meteohub,2018-01-23 18:40:00,
2018-01-23 13:45:00,61.3,41.5,29.55,West,263,0.0,0.0,48,0.00,,,0.00,meteohub,2018-01-23 18:45:00,
2018-01-23 13:50:00,61.5,42.3,29.55,West,263,0.0,0.0,49,0.00,,,0.00,meteohub,2018-01-23 18:50:00,
2018-01-23 13:55:00,61.3,41.0,29.56,West,260,0.0,0.0,47,0.00,,,0.00,meteohub,2018-01-23 18:55:00,
2018-01-23 14:00:00,60.6,39.7,29.56,WNW,300,0.0,0.0,46,0.00,,,0.00,meteohub,2018-01-23 19:00:00,
2018-01-23 14:05:00,60.1,38.7,29.57,WNW,301,0.0,0.0,45,0.00,,,0.00,meteohub,2018-01-23 19:05:00,
2018-01-23 14:11:00,59.4,37.9,29.57,WNW,302,0.0,0.0,45,0.00,,,0.00,meteohub,2018-01-23 19:11:00,
2018-01-23 14:16:00,58.6,39.0,29.58,WNW,301,0.0,0.0,48,0.00,,,0.00,meteohub,2018-01-23 19:16:00,
2018-01-23 14:21:00,57.9,40.8,29.59,WNW,294,0.0,0.0,53,0.00,,,0.00,meteohub,2018-01-23 19:21:00,
2018-01-23 14:31:00,57.4,40.5,29.59,WNW,294,0.0,0.0,53,0.00,,,0.00,meteohub,2018-01-23 19:31:00,
2018-01-23 14:36:00,57.2,40.6,29.59,WNW,294,0.0,0.0,54,0.00,,,0.00,meteohub,2018-01-23 19:36:00,
2018-01-23 14:41:00,57.2,40.6,29.60,WNW,294,0.0,0.0,54,0.00,,,0.00,meteohub,2018-01-23 19:41:00,
2018-01-23 14:46:00,57.7,41.7,29.60,WNW,294,0.0,0.0,55,0.00,,,0.00,meteohub,2018-01-23 19:46:00,
2018-01-23 14:51:00,57.9,43.2,29.60,NNW,334,0.0,0.0,58,0.00,,,0.00,meteohub,2018-01-23 19:51:00,
2018-01-23 14:56:00,57.7,42.6,29.60,NNW,327,0.0,0.0,57,0.00,,,0.00,meteohub,2018-01-23 19:56:00,
2018-01-23 15:01:00,57.6,41.5,29.60,NNW,333,0.0,0.0,55,0.00,,,0.00,meteohub,2018-01-23 20:01:00,
2018-01-23 15:06:00,57.0,41.9,29.61,NW,317,0.0,0.0,57,0.00,,,0.00,meteohub,2018-01-23 20:06:00,
2018-01-23 15:11:00,56.8,41.7,29.61,NW,317,0.0,0.0,57,0.00,,,0.00,meteohub,2018-01-23 20:11:00,
2018-01-23 15:21:00,56.7,41.5,29.61,NNW,336,0.0,0.0,57,0.00,,,0.00,meteohub,2018-01-23 20:21:00,
2018-01-23 15:32:00,56.8,40.8,29.62,NNW,331,0.0,0.0,55,0.00,,,0.00,meteohub,2018-01-23 20:32:00,
2018-01-23 15:37:00,56.8,41.4,29.62,NNW,327,0.0,1.0,56,0.00,,,0.00,meteohub,2018-01-23 20:37:00,
2018-01-23 15:42:00,56.8,40.8,29.62,NNW,339,0.0,1.0,55,0.00,,,0.00,meteohub,2018-01-23 20:42:00,
2018-01-23 15:47:00,56.7,39.7,29.63,NW,321,0.0,0.0,53,0.00,,,0.00,meteohub,2018-01-23 20:47:00,
2018-01-23 15:52:00,56.7,39.2,29.64,NNW,327,0.0,0.0,52,0.00,,,0.00,meteohub,2018-01-23 20:52:00,
2018-01-23 15:57:00,56.5,38.1,29.63,NW,323,0.0,0.0,50,0.00,,,0.00,meteohub,2018-01-23 20:57:00,
2018-01-23 16:02:00,56.3,37.9,29.64,WNW,302,0.0,0.0,50,0.00,,,0.00,meteohub,2018-01-23 21:02:00,
2018-01-23 16:07:00,56.1,37.2,29.65,NNW,333,0.0,0.0,49,0.00,,,0.00,meteohub,2018-01-23 21:07:00,
2018-01-23 16:17:00,55.6,36.7,29.65,NW,317,0.0,0.0,49,0.00,,,0.00,meteohub,2018-01-23 21:17:00,
2018-01-23 16:22:00,55.4,36.5,29.65,NNW,339,0.0,0.0,49,0.00,,,0.00,meteohub,2018-01-23 21:22:00,
2018-01-23 16:27:00,55.0,36.1,29.66,NW,323,0.0,0.0,49,0.00,,,0.00,meteohub,2018-01-23 21:27:00,
2018-01-23 16:32:00,54.9,35.1,29.66,NW,323,0.0,0.0,47,0.00,,,0.00,meteohub,2018-01-23 21:32:00,
2018-01-23 16:37:00,54.7,36.0,29.66,NW,319,0.0,0.0,49,0.00,,,0.00,meteohub,2018-01-23 21:37:00,
2018-01-23 16:42:00,54.1,34.9,29.67,NNW,329,0.0,0.0,48,0.00,,,0.00,meteohub,2018-01-23 21:42:00,
2018-01-23 16:47:00,54.0,35.2,29.67,NNW,331,0.0,0.0,49,0.00,,,0.00,meteohub,2018-01-23 21:47:00,
2018-01-23 16:57:00,53.4,34.7,29.68,NNW,331,0.0,0.0,49,0.00,,,0.00,meteohub,2018-01-23 21:57:00,
2018-01-23 17:07:00,52.9,34.7,29.68,NW,322,0.0,0.0,50,0.00,,,0.00,meteohub,2018-01-23 22:07:00,
2018-01-23 17:12:00,52.7,34.2,29.68,North,0,0.0,0.0,49,0.00,,,0.00,meteohub,2018-01-23 22:12:00,
2018-01-23 17:17:00,52.5,34.3,29.68,NNW,331,0.0,0.0,50,0.00,,,0.00,meteohub,2018-01-23 22:17:00,
2018-01-23 17:22:00,52.3,33.8,29.69,NW,318,0.0,0.0,49,0.00,,,0.00,meteohub,2018-01-23 22:22:00,
2018-01-23 17:27:00,52.3,33.3,29.69,WNW,303,0.0,0.0,48,0.00,,,0.00,meteohub,2018-01-23 22:27:00,
2018-01-23 17:32:00,52.2,32.5,29.70,WNW,302,0.0,0.0,47,0.00,,,0.00,meteohub,2018-01-23 22:32:00,
2018-01-23 17:37:00,52.0,31.8,29.70,WNW,302,0.0,0.0,46,0.00,,,0.00,meteohub,2018-01-23 22:37:00,
2018-01-23 17:47:00,51.6,32.0,29.71,NW,324,0.0,0.0,47,0.00,,,0.00,meteohub,2018-01-23 22:47:00,
2018-01-23 17:52:00,51.4,31.8,29.71,NNW,329,0.0,0.0,47,0.00,,,0.00,meteohub,2018-01-23 22:52:00,
2018-01-23 17:57:00,51.3,31.6,29.72,NNW,331,0.0,0.0,47,0.00,,,0.00,meteohub,2018-01-23 22:57:00,
2018-01-23 18:02:00,51.1,31.6,29.72,WNW,300,0.0,0.0,47,0.00,,,0.00,meteohub,2018-01-23 23:02:00,
2018-01-23 18:07:00,50.9,31.5,29.72,WNW,301,0.0,0.0,47,0.00,,,0.00,meteohub,2018-01-23 23:07:00,
2018-01-23 18:17:00,50.5,31.6,29.73,NW,306,0.0,0.0,48,0.00,,,0.00,meteohub,2018-01-23 23:17:00,
2018-01-23 18:22:00,50.5,31.6,29.73,WNW,302,0.0,0.0,48,0.00,,,0.00,meteohub,2018-01-23 23:22:00,
2018-01-23 18:27:00,50.2,31.3,29.73,WNW,302,0.0,0.0,48,0.00,,,0.00,meteohub,2018-01-23 23:27:00,
2018-01-23 18:33:00,50.2,31.8,29.74,NNW,336,0.0,0.0,49,0.00,,,0.00,meteohub,2018-01-23 23:33:00,
2018-01-23 18:38:00,49.8,31.5,29.74,NNW,329,0.0,0.0,49,0.00,,,0.00,meteohub,2018-01-23 23:38:00,
2018-01-23 18:43:00,49.6,31.3,29.75,NW,325,0.0,0.0,49,0.00,,,0.00,meteohub,2018-01-23 23:43:00,
2018-01-23 18:48:00,49.5,31.1,29.75,NW,325,0.0,0.0,49,0.00,,,0.00,meteohub,2018-01-23 23:48:00,
2018-01-23 18:53:00,49.3,30.9,29.75,NW,322,0.0,0.0,49,0.00,,,0.00,meteohub,2018-01-23 23:53:00,
2018-01-23 18:58:00,49.3,30.9,29.76,NW,323,0.0,0.0,49,0.00,,,0.00,meteohub,2018-01-23 23:58:00,
2018-01-23 19:03:00,49.3,31.5,29.76,NW,323,0.0,0.0,50,0.00,,,0.00,meteohub,2018-01-24 00:03:00,
2018-01-23 19:08:00,49.1,31.3,29.76,NNW,329,0.0,0.0,50,0.00,,,0.00,meteohub,2018-01-24 00:08:00,
2018-01-23 19:13:00,48.9,31.6,29.76,NW,323,0.0,0.0,51,0.00,,,0.00,meteohub,2018-01-24 00:13:00,
2018-01-23 19:19:00,48.7,31.5,29.76,NW,325,0.0,0.0,51,0.00,,,0.00,meteohub,2018-01-24 00:19:00,
2018-01-23 19:24:00,48.6,31.8,29.77,NNW,331,0.0,0.0,52,0.00,,,0.00,meteohub,2018-01-24 00:24:00,
2018-01-23 19:29:00,48.4,31.6,29.77,NNW,337,0.0,0.0,52,0.00,,,0.00,meteohub,2018-01-24 00:29:00,
2018-01-23 19:34:00,48.4,31.6,29.78,WNW,301,0.0,0.0,52,0.00,,,0.00,meteohub,2018-01-24 00:34:00,
2018-01-23 19:39:00,48.0,31.6,29.78,WNW,301,0.0,0.0,53,0.00,,,0.00,meteohub,2018-01-24 00:39:00,
2018-01-23 19:44:00,47.8,32.0,29.78,WNW,301,0.0,0.0,54,0.00,,,0.00,meteohub,2018-01-24 00:44:00,
2018-01-23 19:59:00,47.7,31.3,29.79,WNW,300,0.0,0.0,53,0.00,,,0.00,meteohub,2018-01-24 00:59:00,
2018-01-23 20:04:00,47.5,31.3,29.79,WNW,302,0.0,0.0,53,0.00,,,0.00,meteohub,2018-01-24 01:04:00,
2018-01-23 20:09:00,47.5,30.7,29.79,WNW,301,0.0,0.0,52,0.00,,,0.00,meteohub,2018-01-24 01:09:00,
2018-01-23 20:15:00,47.5,30.7,29.79,WNW,301,0.0,0.0,52,0.00,,,0.00,meteohub,2018-01-24 01:15:00,
2018-01-23 20:20:00,47.3,31.1,29.78,WNW,301,0.0,0.0,53,0.00,,,0.00,meteohub,2018-01-24 01:20:00,
2018-01-23 20:25:00,47.1,30.9,29.78,WNW,300,0.0,0.0,53,0.00,,,0.00,meteohub,2018-01-24 01:25:00,
2018-01-23 20:30:00,46.8,30.9,29.79,WNW,301,0.0,0.0,54,0.00,,,0.00,meteohub,2018-01-24 01:30:00,
2018-01-23 20:35:00,46.6,30.7,29.79,WNW,301,0.0,0.0,54,0.00,,,0.00,meteohub,2018-01-24 01:35:00,
2018-01-23 20:40:00,46.4,31.1,29.79,WNW,300,0.0,0.0,55,0.00,,,0.00,meteohub,2018-01-24 01:40:00,
2018-01-23 20:45:00,46.2,30.9,29.80,WNW,300,0.0,0.0,55,0.00,,,0.00,meteohub,2018-01-24 01:45:00,
2018-01-23 20:50:00,46.0,30.7,29.80,WNW,300,0.0,0.0,55,0.00,,,0.00,meteohub,2018-01-24 01:50:00,
2018-01-23 20:55:00,45.9,31.1,29.80,WNW,300,0.0,0.0,56,0.00,,,0.00,meteohub,2018-01-24 01:55:00,
2018-01-23 21:00:00,45.7,30.9,29.80,WNW,300,0.0,0.0,56,0.00,,,0.00,meteohub,2018-01-24 02:00:00,
2018-01-23 21:05:00,45.1,30.7,29.80,WNW,301,0.0,0.0,57,0.00,,,0.00,meteohub,2018-01-24 02:05:00,
2018-01-23 21:10:00,45.1,30.7,29.79,WNW,301,0.0,0.0,57,0.00,,,0.00,meteohub,2018-01-24 02:10:00,
2018-01-23 21:15:00,45.1,30.7,29.79,WNW,301,0.0,0.0,57,0.00,,,0.00,meteohub,2018-01-24 02:15:00,
2018-01-23 21:20:00,45.1,30.7,29.79,WNW,301,0.0,0.0,57,0.00,,,0.00,meteohub,2018-01-24 02:20:00,
2018-01-23 21:26:00,45.3,30.6,29.79,NNW,339,0.0,0.0,56,0.00,,,0.00,meteohub,2018-01-24 02:26:00,
2018-01-23 21:31:00,45.7,30.4,29.79,NNW,329,0.0,0.0,55,0.00,,,0.00,meteohub,2018-01-24 02:31:00,
2018-01-23 21:36:00,45.7,30.9,29.79,NNW,330,0.0,0.0,56,0.00,,,0.00,meteohub,2018-01-24 02:36:00,
2018-01-23 21:41:00,45.9,30.6,29.80,NNW,331,0.0,0.0,55,0.00,,,0.00,meteohub,2018-01-24 02:41:00,
2018-01-23 21:46:00,45.7,30.4,29.80,NNW,336,0.0,0.0,55,0.00,,,0.00,meteohub,2018-01-24 02:46:00,
2018-01-23 21:51:00,45.7,30.9,29.81,NNW,336,0.0,0.0,56,0.00,,,0.00,meteohub,2018-01-24 02:51:00,
2018-01-23 21:56:00,45.5,30.7,29.81,NNW,336,0.0,0.0,56,0.00,,,0.00,meteohub,2018-01-24 02:56:00,
2018-01-23 22:11:00,45.1,30.4,29.81,NNW,332,0.0,0.0,56,0.00,,,0.00,meteohub,2018-01-24 03:11:00,
2018-01-23 22:16:00,45.1,30.7,29.80,NNW,332,0.0,0.0,57,0.00,,,0.00,meteohub,2018-01-24 03:16:00,
2018-01-23 22:22:00,45.0,30.2,29.81,North,351,0.0,0.0,56,0.00,,,0.00,meteohub,2018-01-24 03:22:00,
2018-01-23 22:27:00,45.0,30.6,29.81,NNW,332,0.0,0.0,57,0.00,,,0.00,meteohub,2018-01-24 03:27:00,
2018-01-23 22:32:00,44.8,30.6,29.81,NW,321,0.0,0.0,57,0.00,,,0.00,meteohub,2018-01-24 03:32:00,
2018-01-23 22:37:00,44.8,30.0,29.81,NW,322,0.0,0.0,56,0.00,,,0.00,meteohub,2018-01-24 03:37:00,
2018-01-23 22:42:00,44.8,30.6,29.81,NW,322,0.0,0.0,57,0.00,,,0.00,meteohub,2018-01-24 03:42:00,
2018-01-23 22:47:00,45.0,30.2,29.82,NNW,333,0.0,0.0,56,0.00,,,0.00,meteohub,2018-01-24 03:47:00,
2018-01-23 22:52:00,45.1,30.4,29.82,NNW,335,0.0,0.0,56,0.00,,,0.00,meteohub,2018-01-24 03:52:00,
2018-01-23 23:02:00,45.0,30.2,29.82,NNW,336,0.0,0.0,56,0.00,,,0.00,meteohub,2018-01-24 04:02:00,
2018-01-23 23:07:00,44.8,30.6,29.82,NNW,336,0.0,0.0,57,0.00,,,0.00,meteohub,2018-01-24 04:07:00,
2018-01-23 23:12:00,44.4,30.2,29.82,NNW,327,0.0,0.0,57,0.00,,,0.00,meteohub,2018-01-24 04:12:00,